OPS 4682 DEB, 18783

Orbit data source: Space-Track

OPS 4682 DEB, 18783 is space debris in LEO originally from a launch on Sat, 03 Apr 1965 UTC launched from the Air Force Western Test Range (AFWTR). Debris objects in space refer to the collection of defunct objects orbiting the Earth. Examples of debris include non-operational satellites, rocket bodies, and fragments generated from explosions, collisions, or faulty payload assembly.

Loading next visibility...
Identifier
18783, 1965-027AK
Orbit
LEO
Country
Flag of USUS
Related business
Manufacturer
Unknown
Mission
Spacecraft
Bus & Motor
Unknown
Mass
Unknown
Launch date (UTC)
1965-04-03 (61 years ago)
Launch vehicle
Unknown
Launch site
Air Force Western Test Range (AFWTR)
Object type
Payload
Rocket body
Debris
Shape & HBR
Unknown shape, 0.1 m
Radar Cross Section
Medium (>0.1 m² and <1 m²)

Expand to show TLE details & history
Last TLE update: 4 days ago

TLE from 4 days ago
0 OPS 4682 DEB
1 18783U 65027AK  26259.35442846  .00001015  00000-0  33042-2 0  9998
2 18783  90.2750  28.5885 0025806 323.7994  62.0005 13.00861126592339
Epoch: 2026-09-16T08:30Z
TLE epoch observation values (Epoch: 2026-09-16T08:30:22.618Z)
Latitude
26.09111°
Longitude
-94.44696°
Altitude
1,252.67 km
Speed
7.235 km/s
True Right ascension
01h 53m 49s
True Declination
25° 57' 52"
Sunlit
Object was in full shadow at epoch
Visualization orbit readout
Latitude
Unknown
Longitude
Unknown
Altitude
Unknown
Speed
Unknown
Apparent Right ascension
Unknown
Apparent Declination
Unknown
Sunlit
N/A
Visualization observer readout
Local Sidereal Time
08:49:13
Azimuth
Unknown
Elevation
Unknown
Doppler factor
Unknown
Orbital elements
Apogee altitude
1,275.541 km
Perigee altitude
1,236.14 km
Semi-major axis
7,633.977 km
Eccentricity
0.00258
Inclination
90.275°
RAAN
28.5885°
Arg. of periapsis
323.7994°
True anomaly
62.262°
Mean anomaly
62.0005°
Eccentric anomaly
62.13121°
Mean motion
3.25399 °/min
Orbital period
110.63 mins
BSTAR
0.0033042
Loading maneuver chart data...
Computing Atmospheric mass density...
Loading historical data...
Loading historical data...
Loading historical data...
Loading historical data...
Loading historical data...
Loading historical data...
Loading historical data...

Documentation

Showing up to 5 results
|